Location: Kruen
(47.5000°N, 11.5000°E)
Time: 22:39:06
(UTC+01:00)

ISS - Pass Details

Date: 27 September 2020
Orbit: 417 x 420 km, 51.6° (Epoch: 27 October)

Event Time Altitude Azimuth Distance (km) Brightness Sun altitude
Rises 21:03:07 0° 290° (WNW) 2,368 1.6 -21.1°
Reaches altitude 10° 21:05:16 10° 296° (WNW) 1,503 0.2 -21.4°
Enters shadow 21:08:12 45° 351° (N) 586 -2.9 -21.9°
